Regional Weather Roundup
Issued by NWS Nashville, TN

Home | Current Version | Previous Version | Text Only | Print | Product List | Glossary On
Versions: 1 2 3 4 5 6 7 8 9 10 11 12 13 14 15 16 17 18 19 20 21 22 23 24 25 26 27 28 29 30 31 32 33 34 35 36 37 38 39 40 41 42 43 44 45 46 47 48 49 50
000
ASUS44 KOHX 301515
RWROHX
MIDDLE TENNESSEE HOURLY WEATHER ROUNDUP
NATIONAL WEATHER SERVICE NASHVILLE TN
1000 AM CDT THU OCT 30 2014

NOTE: "FAIR" INDICATES FEW OR NO CLOUDS BELOW 12,000 FEET WITH
NO SIGNIFICANT WEATHER AND/OR OBSTRUCTIONS TO VISIBILITY.

* THESE REPORTS ARE NOT UNDER NWS QUALITY CONTROL AND MAY NOT
  REPORT WEATHER SUCH AS PRECIPITATION AND FOG.


TNZ005>011-023>034-057-059-062>066-078-080-301600
...NORTHERN MIDDLE TENNESSEE...

CITY           SKY/WX    TMP DP  RH WIND       PRES   REMARKS
CLARKSVILLE    SUNNY     49  41  74 CALM      30.18S
CROSSVILLE     SUNNY     49  36  61 NW5       30.14S
GALLATIN         N/A     50  43  77 CALM      30.17F
DICKSON        SUNNY     48  37  66 CALM      30.16R
LEBANON        SUNNY     49  41  74 CALM      30.15
NASHVILLE      SUNNY     52  40  63 CALM      30.18S
WEST NASHVILLE   N/A     45  45 100 CALM      30.17F
PORTLAND       SUNNY     46  39  76 N3        30.16S
ROCKWOOD       SUNNY     51  37  58 VRB3      30.11S
SMYRNA         SUNNY     52  41  66 CALM      30.18F
SPARTA         SUNNY     50  43  76 CALM      30.15S
$$
TNZ056-058-060-061-075>077-079-093>097-301600
...SOUTHERN MIDDLE TENNESSEE...

CITY           SKY/WX    TMP DP  RH WIND       PRES   REMARKS
COLUMBIA       SUNNY     48  48 100 CALM      30.15S
FAYETTEVILLE   SUNNY     50  39  66 CALM      30.15S
MCMINNVILLE    SUNNY     48  46  93 CALM      30.16S
MURFREESBORO   SUNNY     49  40  71 CALM      30.16F
SHELBYVILLE    SUNNY     52  43  71 CALM      30.16S
TULLAHOMA      SUNNY     50  41  71 NE3       30.16S
WINCHESTER     SUNNY     48  43  81 CALM      30.15S
$$


...KEY TO REMARKS...
VSB - VISIBILITY IN MILES
WCI - WIND CHILL INDEX
HX  - HEAT INDEX




USA.gov is the U.S. government's official web portal to all federal, state and local government web resources and services.